Location: Pensacola
(30.4142°N, 87.2155°W)
Time: 19:14:42
(UTC-05:00)

AO-27 - Pass Details

Date: 06 June 2024
Orbit: 783 x 797 km, 98.8° (Epoch: 21 June)

Event Time Altitude Azimuth Distance (km) Brightness Sun altitude
Exits shadow 20:11:48 - 112° (ESE) 2,721 9.8 -5.1°
Reaches altitude 10° 20:13:17 10° 101° (E) 2,348 9.5 -5.4°
Maximum altitude 20:16:10 15° 66° (ENE) 2,005 9.4 -5.9°
Drops below altitude 10° 20:19:03 10° 32° (NNE) 2,350 10.1 -6.4°
Sets 20:22:19 0° 10° (N) 3,280 11.2 -7.0°
